GEFSNGP_500_meanwind_006.txt.gz
Wind_Speed
9 9 10 11 12 9 8 9 11 8 4 5 9 12 14 16 16 15 14 13 9 5 6 8 9 9 11 15 18 19 20 20 22 20 17 16 18 20 20 20 20 20 20 20
12 13 13 14 13 11 9 8 8 7 5 4 3 7 10 13 15 18 17 16 14 12 12 14 15 14 15 17 19 20 21 20 20 19 17 17 18 19 19 19 20 19 18 19
16 16 16 17 17 15 14 13 12 11 12 11 7 3 4 9 11 13 16 19 21 19 16 16 17 18 19 19 19 19 18 18 18 19 19 19 20 20 21 21 20 20 20 19
23 22 20 20 20 20 19 17 14 13 13 13 11 8 7 5 4 6 8 10 12 13 13 14 16 17 18 17 16 16 17 18 19 20 20 20 20 20 21 22 23 23 22 21
25 23 23 21 20 20 21 20 17 13 12 13 13 11 11 10 8 8 8 5 4 5 7 8 9 11 12 14 15 16 18 19 20 21 21 20 19 19 21 23 22 22 22 22
25 23 23 21 17 16 17 18 17 13 11 12 13 13 13 12 9 8 9 7 4 2 2 4 6 9 12 14 15 16 17 19 21 21 20 19 19 21 22 22 21 20 21 22
24 22 21 19 16 13 13 15 15 13 11 14 16 15 15 14 11 9 8 6 3 2 3 6 9 12 14 15 16 17 18 19 20 19 19 20 20 20 20 20 19 19 20 21
21 19 17 15 13 12 12 14 14 14 14 15 16 15 14 12 10 8 7 6 6 7 9 11 13 14 15 16 15 16 17 17 17 17 18 19 18 17 17 17 17 18 20 21
17 15 14 12 11 10 10 10 11 12 13 13 13 13 12 12 10 10 10 11 11 12 12 13 13 14 15 16 16 17 17 16 16 17 18 18 17 16 16 17 18 19 21 23
14 11 8 7 7 7 7 6 6 7 9 10 10 10 10 10 9 10 12 13 13 13 13 14 14 15 16 17 18 18 17 17 17 18 18 18 17 16 17 18 18 19 20 22
15 11 7 3 1 2 4 4 4 5 5 6 7 7 7 7 8 9 12 13 12 13 14 14 15 15 16 17 17 16 15 16 16 17 17 16 15 15 15 16 17 18 19 20
20 16 10 6 2 2 3 3 4 4 4 3 3 4 5 6 7 9 11 12 13 14 14 14 15 17 18 17 15 14 14 14 14 15 15 15 14 13 14 15 15 15 16 17
27 25 18 9 4 4 6 4 3 3 3 4 2 1 4 5 6 9 10 12 14 15 15 16 17 18 19 18 16 16 16 16 16 16 15 14 13 13 14 14 13 14 14 15
28 28 26 19 7 4 6 7 6 5 4 6 5 3 4 5 6 7 9 11 14 16 16 16 16 18 19 18 17 17 18 18 18 18 17 15 14 14 14 15 15 14 15 15
27 29 30 27 16 6 6 10 10 8 8 8 7 5 4 5 5 7 8 10 13 15 15 15 16 18 18 18 17 17 18 20 20 20 19 18 17 16 16 16 16 16 16 17
26 28 30 31 26 14 6 9 12 12 10 10 10 8 6 5 5 6 7 9 11 13 13 13 15 17 18 18 17 17 18 19 20 20 21 21 20 19 18 17 17 16 17 17
24 25 28 31 30 23 12 6 10 12 13 13 13 11 9 7 6 5 5 7 9 10 11 12 13 15 17 17 17 17 18 18 19 20 20 21 21 20 20 19 19 19 18 19
22 23 24 27 30 28 21 10 7 10 12 14 15 14 12 10 8 6 4 5 7 8 9 10 12 13 14 15 16 16 17 17 17 17 17 18 19 19 20 20 20 20 20 21
20 21 22 23 26 28 26 20 11 9 11 13 15 15 15 14 12 9 5 2 4 6 7 9 10 11 12 13 14 15 16 16 16 15 15 14 15 16 17 18 18 19 20 20
18 19 20 21 22 25 26 25 20 12 11 13 14 15 15 16 14 12 8 4 2 3 5 7 8 9 10 11 12 13 14 14 14 14 14 14 14 14 15 16 16 17 18 19
17 19 20 20 21 22 25 26 25 21 13 11 14 15 15 16 15 13 11 8 6 3 3 5 7 8 8 8 9 11 12 13 13 13 14 14 14 14 14 14 15 15 16 16
17 18 19 20 21 21 23 25 26 25 20 12 11 15 16 16 17 16 14 12 10 7 4 4 6 7 7 6 7 8 10 11 11 12 13 14 15 14 14 13 13 12 13 13
18 18 18 20 21 21 22 23 25 26 24 18 11 13 16 18 19 19 18 16 14 11 8 6 5 6 7 5 5 6 7 8 9 10 12 13 15 15 15 14 13 12 12 12
20 19 18 19 21 22 22 22 24 25 25 22 18 14 15 18 21 23 22 21 18 16 13 10 8 7 7 6 4 4 4 5 6 8 10 12 14 14 14 13 13 12 13 13
23 21 19 20 22 23 23 23 23 25 26 25 23 20 17 17 20 23 25 25 23 21 18 15 12 10 9 8 6 3 3 4 6 8 10 12 14 14 13 11 11 11 11 12
24 22 22 22 23 24 25 24 24 25 26 27 27 25 23 19 17 20 24 26 26 24 22 19 16 13 12 11 9 5 4 5 6 8 10 12 14 14 12 10 9 9 9 10
28 26 26 26 25 25 26 26 26 26 26 28 29 29 27 24 19 16 20 24 26 26 24 22 19 17 15 14 12 9 7 7 7 8 10 12 14 13 12 10 9 8 8 8

GEFSNGP_500_meanwind_012.txt.gz
Wind_Speed
26 24 24 22 20 17 16 14 12 10 9 7 5 4 5 5 6 7 7 5 4 4 5 4 3 2 3 6 8 11 12 14 14 13 13 12 14 16 17 18 19 19 19 19
26 25 24 23 20 19 17 16 16 15 14 12 10 8 6 6 6 6 7 6 5 3 2 2 2 5 7 10 11 13 14 14 13 13 13 14 17 19 19 20 20 20 20 20
25 24 24 23 21 19 18 18 19 19 19 16 14 12 11 9 8 6 4 4 3 3 4 5 6 7 10 11 12 13 13 13 14 15 16 18 19 20 21 21 21 21 21 21
23 23 22 22 20 17 15 14 16 17 19 19 18 16 16 16 15 11 8 5 3 2 3 3 5 6 7 9 10 11 13 14 16 17 18 19 20 21 21 21 21 22 22 22
21 21 22 21 20 17 13 12 13 15 16 18 18 19 19 19 18 16 13 10 8 8 7 6 6 7 8 9 11 12 14 16 17 18 19 20 20 20 20 20 20 21 21 21
20 19 19 19 18 17 15 11 11 12 14 15 18 18 17 18 17 15 13 11 10 9 8 8 8 9 10 11 13 14 15 16 17 18 19 19 19 19 19 19 19 19 19 19
19 19 18 17 16 16 13 11 10 10 11 13 14 14 14 14 14 13 11 10 9 9 8 8 9 10 11 12 13 14 16 17 18 19 19 20 20 20 20 20 19 18 18 19
20 19 18 15 13 13 11 10 8 8 9 10 10 10 11 11 12 12 11 11 11 10 10 10 11 12 13 15 16 17 17 17 18 19 19 20 21 20 19 18 17 17 18 19
23 21 18 14 11 10 8 6 5 5 6 6 7 8 9 10 11 12 12 13 12 12 12 13 14 16 17 18 18 18 18 18 18 19 19 19 18 17 16 15 14 15 16 17
27 25 20 15 11 9 7 4 3 2 2 3 5 6 7 9 11 12 13 13 13 13 13 14 16 17 18 18 18 19 19 19 19 18 17 17 15 14 13 12 12 13 14 14
30 29 25 20 14 9 6 4 2 1 1 1 3 5 6 8 10 11 13 14 14 14 14 14 15 16 16 17 17 19 20 20 20 18 17 16 14 13 12 11 11 12 12 14
32 32 30 25 17 11 6 4 3 2 2 3 4 5 6 8 9 10 12 14 14 14 14 14 15 15 15 15 17 19 20 20 20 19 18 17 16 14 13 13 12 13 14 15
31 33 33 31 23 15 8 5 4 4 4 4 5 5 6 7 8 10 11 13 14 13 13 14 14 14 14 15 17 18 20 20 21 20 19 18 17 16 15 15 15 16 16 17
29 31 33 34 30 21 14 8 5 6 5 5 5 6 5 6 7 9 10 12 12 12 12 13 13 13 14 15 16 18 19 20 20 20 20 20 19 18 18 17 18 19 20 20
25 28 30 32 33 27 19 13 8 6 7 7 7 7 6 6 6 7 8 10 10 10 10 11 12 13 13 14 15 17 18 19 19 19 19 19 20 19 19 20 20 22 23 24
22 25 27 30 31 31 25 19 13 8 7 8 8 8 6 5 5 5 6 7 9 9 9 11 12 12 12 13 14 16 17 17 18 18 18 18 19 19 20 21 22 23 25 26
20 22 24 26 28 29 28 24 19 13 7 7 7 7 5 5 4 4 4 5 6 7 8 10 10 11 12 13 13 14 15 16 16 17 17 18 18 19 20 21 23 24 26 27
18 19 20 22 26 27 27 25 23 19 11 6 5 5 4 4 5 4 4 3 4 5 7 8 9 10 11 12 12 13 14 14 15 15 16 17 18 19 19 20 22 24 25 27
18 18 18 19 22 24 26 25 24 22 18 11 5 3 3 4 4 5 5 5 4 4 5 7 8 10 11 11 11 12 12 13 14 15 16 16 17 18 18 19 20 21 23 24
19 18 18 17 18 20 23 23 23 22 20 15 8 4 3 4 5 6 6 6 5 5 4 5 7 9 10 10 10 10 10 11 13 15 16 17 17 17 17 18 18 19 20 21
20 20 19 17 17 18 20 21 21 21 20 18 12 7 5 5 5 7 7 7 7 7 6 5 6 7 9 9 9 9 8 9 11 13 15 16 17 17 17 17 17 17 17 17
23 22 21 20 18 17 18 19 20 19 19 18 15 12 8 7 7 8 8 9 10 9 9 8 6 6 7 8 8 7 7 7 9 11 13 15 16 16 16 16 16 16 16 15
26 25 24 23 22 20 19 18 19 19 18 17 16 14 12 11 9 9 8 9 11 12 11 10 9 7 6 6 7 7 6 6 7 9 11 13 15 15 14 13 14 15 15 15
30 28 26 26 25 24 22 21 20 20 19 18 17 17 15 13 11 10 10 9 11 12 13 12 11 10 8 7 7 7 6 6 7 8 10 12 13 14 13 12 12 12 13 14
33 31 29 28 28 28 27 25 23 22 21 20 19 19 18 17 14 12 12 11 9 11 13 14 13 12 10 9 8 8 7 7 8 9 9 10 12 13 12 12 11 11 12 13
35 33 32 31 31 31 30 29 28 26 24 23 22 21 20 20 18 15 14 12 10 9 12 14 14 14 13 12 11 10 9 9 8 9 10 10 10 11 11 11 11 11 11 12
39 36 34 33 33 33 33 33 32 30 28 26 25 23 22 22 20 18 16 14 11 9 10 14 16 16 15 14 13 13 12 11 10 9 10 10 10 10 10 10 10 10 11 11

GEFSNGP_500_meanwind_018.txt.gz
Wind_Speed
28 27 26 25 25 24 22 20 18 16 16 15 14 13 12 11 11 9 7 6 5 5 6 5 7 7 7 7 6 5 4 3 2 1 2 3 5 7 8 11 13 15 16 17
27 26 25 24 24 24 22 22 20 19 18 18 15 14 12 11 11 9 6 5 5 4 4 5 7 7 8 7 7 6 6 5 5 5 5 7 8 10 12 14 16 17 18 19
26 25 24 23 21 21 21 21 20 19 19 17 16 14 12 11 9 7 6 5 5 6 5 7 8 8 8 8 7 6 6 6 7 8 9 10 12 13 15 16 17 19 20 20
24 23 23 21 19 18 19 19 19 20 19 18 18 17 14 12 11 10 9 10 10 9 9 9 9 9 9 9 9 9 9 9 10 11 12 13 15 16 17 18 19 20 21 21
25 22 21 20 18 17 17 18 19 19 19 19 18 18 17 15 14 13 12 12 11 11 10 10 10 10 10 10 11 11 12 12 12 13 14 14 15 17 18 19 20 21 21 22
26 23 21 19 17 15 15 16 16 16 16 17 18 18 17 16 15 14 13 12 12 12 12 11 12 12 12 12 12 12 12 12 12 13 13 14 15 17 18 19 19 20 21 22
29 24 21 18 16 14 13 13 14 14 15 16 17 16 15 15 14 14 14 13 13 13 13 13 13 13 13 13 13 13 13 13 13 13 13 14 15 16 16 17 18 18 19 19
32 27 22 18 15 13 12 11 11 12 13 14 14 14 14 14 14 14 14 14 14 14 14 14 15 15 15 15 15 15 15 15 15 15 15 16 16 15 15 14 15 16 16 17
34 29 24 20 16 13 11 10 9 10 11 12 12 12 12 13 13 14 15 15 16 16 16 17 17 17 16 16 16 16 17 17 17 17 17 17 17 16 15 15 15 15 16 16
32 32 27 22 17 14 12 10 8 8 9 9 10 11 11 11 12 14 14 15 16 17 17 18 18 17 17 17 17 17 18 18 19 19 19 18 18 18 17 17 17 17 16 16
29 31 29 25 19 15 12 10 8 7 7 8 8 9 10 10 11 12 14 15 16 16 17 18 18 18 18 18 17 17 18 18 19 19 20 20 19 19 20 19 19 18 17 16
25 28 28 26 22 17 14 11 9 8 7 7 7 7 8 9 10 11 12 14 14 15 16 17 17 17 18 18 17 17 17 18 18 19 20 20 20 21 21 21 21 21 19 16
21 24 26 26 24 20 16 12 9 7 7 6 6 6 6 7 8 9 10 12 13 13 14 15 16 16 17 17 17 17 17 17 18 19 19 20 21 22 22 22 23 23 22 20
17 20 22 24 24 21 18 15 10 7 6 5 5 4 4 4 5 6 8 9 10 11 12 13 14 15 16 16 16 16 17 17 18 18 19 20 21 22 23 23 23 23 23 23
14 16 18 20 21 21 19 17 13 9 6 5 4 4 3 2 2 3 5 6 8 9 9 11 12 13 14 15 16 16 16 17 17 18 18 19 20 22 23 24 24 24 24 24
13 13 15 16 18 19 19 18 15 12 7 5 4 4 3 2 1 1 2 3 4 6 7 9 10 12 13 14 15 15 15 16 17 17 18 18 18 20 21 23 24 24 25 25
12 12 12 13 14 15 16 17 16 13 10 6 5 4 3 2 2 2 2 2 3 4 5 7 8 10 11 12 13 13 14 15 16 17 17 17 17 17 18 20 21 23 23 23
12 12 11 11 11 13 13 14 15 14 12 10 7 5 4 4 3 3 3 3 4 4 5 6 7 8 9 10 11 11 12 14 15 17 17 17 16 16 16 16 18 19 20 21
14 12 12 11 11 11 11 12 13 13 12 11 9 7 6 5 5 4 5 5 6 5 5 6 6 6 7 8 8 8 9 11 13 15 16 16 16 15 15 14 15 16 16 17
17 15 13 13 12 11 11 11 11 11 11 11 10 8 7 7 6 6 5 6 7 7 7 7 7 6 6 6 5 6 7 8 11 13 15 15 15 14 13 13 13 13 14 14
21 19 17 15 14 14 13 12 12 11 10 10 10 9 8 8 7 7 6 6 7 9 9 9 8 8 6 5 4 4 5 6 8 10 13 14 14 13 12 12 12 12 12 12
26 23 21 19 18 17 16 15 15 13 12 11 10 10 9 9 8 8 8 7 8 9 10 10 10 9 8 6 4 4 4 4 6 8 10 12 13 13 12 11 11 11 11 11
30 28 26 24 22 21 20 19 18 18 16 14 13 11 10 10 9 9 9 9 8 8 9 10 11 10 9 8 6 5 5 5 5 6 8 10 11 12 11 10 10 10 10 10
34 32 30 28 27 25 24 23 22 21 20 18 17 15 13 12 11 10 10 10 10 9 9 10 10 11 11 10 9 7 6 6 5 6 6 7 9 10 10 10 9 9 9 9
38 36 34 32 31 29 27 25 25 24 23 22 21 19 17 16 14 12 11 11 11 10 10 9 10 11 12 12 11 10 9 8 7 7 6 6 6 7 8 9 9 9 8 8
42 39 37 36 34 32 30 28 27 26 25 25 24 23 22 20 18 16 14 12 11 11 11 10 10 11 13 14 14 13 12 11 10 9 8 8 7 7 7 7 8 9 8 7
46 44 41 39 38 37 35 32 30 29 28 27 26 26 25 24 22 20 18 16 14 12 12 12 11 12 14 15 17 16 15 14 13 12 11 10 9 8 8 7 7 8 8 7

GEFSNGP_500_meanwind_024.txt.gz
Wind_Speed
19 20 20 20 22 23 23 23 22 21 20 19 19 17 16 16 15 15 15 14 14 15 15 14 14 14 14 14 13 12 11 9 8 7 6 5 5 4 4 5 6 7 9 11
21 21 20 20 21 22 22 23 24 22 21 21 20 20 19 18 18 18 18 17 16 16 16 16 16 15 15 14 13 12 11 10 9 8 7 7 7 7 8 9 10 11 12 14
23 20 19 21 21 21 21 21 22 22 22 22 22 22 22 22 20 20 19 19 18 17 17 16 16 15 14 13 13 12 10 10 9 8 8 8 9 10 11 12 13 14 15 17
23 21 20 19 18 18 18 19 20 20 20 20 20 21 21 22 21 20 19 19 18 17 17 16 16 15 15 14 14 13 12 11 10 10 10 10 11 11 12 14 15 16 18 19
25 21 18 16 16 16 17 17 18 19 19 19 18 19 20 20 19 19 18 18 18 17 16 16 16 16 16 16 15 15 14 14 13 13 12 12 12 13 14 14 15 16 17 18
26 23 19 16 14 14 14 15 16 17 17 17 17 19 20 19 19 18 18 18 18 17 17 17 17 17 17 17 17 17 17 16 16 15 15 15 15 15 15 15 15 16 17 17
27 24 22 18 15 13 13 14 14 14 15 15 16 17 18 18 18 18 18 18 18 18 18 18 18 18 18 19 19 19 19 19 19 19 19 18 18 18 17 16 16 16 16 16
26 25 22 20 16 14 13 12 13 13 13 13 14 15 16 16 17 17 16 17 17 18 18 18 18 18 19 19 19 19 20 20 21 21 21 21 21 21 20 18 17 16 16 15
25 24 23 22 18 15 13 12 12 12 12 12 13 14 14 15 15 15 15 16 16 17 17 17 18 18 18 18 18 19 19 20 21 22 22 22 22 22 21 21 19 18 17 15
22 23 22 22 20 17 14 12 12 11 11 11 11 12 12 13 13 13 14 14 15 15 16 16 17 17 17 17 18 18 19 20 22 23 23 24 23 22 22 22 21 19 18 16
18 20 21 20 20 18 16 13 12 11 10 10 10 10 10 11 11 12 12 12 13 13 14 15 16 17 17 17 17 18 19 20 22 23 24 25 25 24 23 23 23 22 21 19
14 16 18 18 18 18 17 15 13 11 10 10 9 8 8 8 9 10 10 10 11 12 13 14 15 16 17 17 18 19 20 21 22 23 24 25 26 25 24 24 25 25 24 23
11 13 14 15 16 16 16 15 14 12 11 10 9 8 7 7 7 7 8 8 10 11 12 14 15 16 17 17 17 18 19 20 21 22 22 24 25 25 25 25 25 26 26 26
9 10 11 12 13 14 14 14 13 13 11 10 9 8 7 6 6 6 7 7 8 9 11 13 14 15 16 16 17 18 19 20 21 21 21 22 23 24 24 25 25 25 26 26
9 9 9 9 10 11 12 13 13 12 11 10 10 9 8 7 6 6 6 6 7 8 10 11 13 14 15 15 16 17 18 20 20 20 20 20 20 21 22 23 23 23 24 24
10 9 9 9 8 9 10 11 11 12 11 10 9 9 9 8 7 6 6 6 7 7 8 10 11 12 13 14 15 16 17 19 20 20 19 19 18 19 19 20 20 21 21 21
11 10 10 10 9 9 9 9 9 10 10 10 9 9 9 8 7 7 7 7 7 7 8 9 10 10 11 12 12 14 15 17 19 19 19 18 17 17 17 18 18 18 18 18
13 13 12 12 11 10 10 9 8 8 9 9 9 9 9 9 9 8 8 8 8 8 8 8 9 9 9 10 10 11 12 15 17 18 18 18 17 16 16 16 16 16 16 16
16 16 15 14 13 13 12 11 11 10 9 9 9 9 9 9 9 9 9 9 9 10 10 9 9 8 8 8 9 10 11 12 14 16 17 17 17 16 16 16 15 15 15 14
21 20 18 17 16 16 15 14 14 13 12 11 10 10 10 10 10 10 10 10 10 11 11 10 9 9 8 8 8 8 9 10 12 14 15 16 16 16 15 15 15 15 14 13
26 24 23 21 20 19 19 18 17 16 16 15 13 12 11 11 11 10 10 10 10 11 11 11 11 10 9 8 8 7 8 8 9 11 13 14 15 15 14 14 14 14 13 13
31 29 28 26 25 24 23 22 21 20 19 18 17 16 15 14 13 12 12 11 11 11 12 12 12 11 11 9 8 8 8 8 8 8 10 11 13 14 13 13 13 13 12 12
36 34 33 31 30 28 27 26 25 24 23 22 21 20 19 18 17 16 15 14 13 12 12 12 12 12 11 11 10 10 9 8 8 8 8 9 10 12 12 12 12 12 11 11
42 40 38 37 35 33 32 31 30 28 27 26 25 24 23 22 22 20 19 17 16 15 14 13 13 12 12 12 12 12 12 11 10 9 9 9 9 10 10 11 11 10 10 9
47 45 44 42 41 39 37 36 35 32 31 30 29 28 27 26 26 25 24 22 20 19 17 15 14 14 14 14 14 14 14 14 13 12 11 10 10 10 10 10 10 10 9 8
53 51 49 48 46 45 43 41 39 37 36 35 34 32 31 30 29 29 28 27 25 24 22 20 18 17 16 16 16 16 16 16 16 15 14 13 12 11 11 10 10 10 9 9
56 55 54 52 51 50 48 46 44 42 40 39 38 37 35 34 33 32 31 30 29 28 27 25 23 21 19 18 17 17 18 18 19 19 18 17 16 14 13 12 12 11 11 10

GEFSNGP_500_meanwind_030.txt.gz
Wind_Speed
19 18 18 19 20 20 20 20 20 20 20 19 19 20 20 20 20 20 19 19 18 17 17 16 15 14 14 13 13 12 11 10 9 8 7 6 5 4 4 5 5 6 7 7
18 18 18 19 20 20 20 20 20 20 20 20 19 20 20 20 20 20 19 19 19 18 18 17 17 16 16 15 15 14 13 12 11 10 9 8 8 8 8 9 10 11 12 13
20 18 18 19 20 20 20 20 20 20 20 20 20 19 20 20 20 20 20 19 19 19 19 19 18 18 18 17 17 16 15 15 14 13 12 11 10 10 10 11 12 13 14 15
21 19 19 19 19 19 19 19 19 19 20 20 20 19 20 20 20 20 20 20 20 20 20 20 20 20 20 19 19 19 18 17 16 15 14 13 12 12 12 13 14 15 15 17
22 20 19 19 19 18 18 18 18 18 19 19 19 19 20 21 21 21 21 21 21 21 21 21 21 20 20 20 20 19 19 18 18 17 16 16 15 14 14 14 14 15 15 17
22 20 19 18 18 18 17 17 17 17 17 18 18 19 21 21 22 22 22 22 22 21 21 21 21 20 20 20 20 20 20 19 19 19 18 17 17 16 15 15 14 14 15 15
20 20 19 18 18 18 17 17 17 16 16 17 17 18 19 20 21 21 21 21 21 21 20 20 20 19 20 20 20 20 20 20 20 20 20 19 18 18 17 16 15 15 14 14
17 18 18 18 17 17 17 16 16 16 16 16 16 17 17 17 18 19 19 19 19 19 19 19 19 19 19 20 20 21 21 22 22 22 21 21 20 20 20 18 18 17 16 15
14 16 17 17 17 17 17 16 15 15 15 14 14 15 15 15 16 17 17 17 18 18 19 19 19 19 19 19 20 21 21 22 23 23 24 23 22 22 22 22 20 20 19 18
10 12 14 15 16 16 17 16 15 14 14 13 13 13 13 13 13 14 15 15 16 17 18 18 19 18 18 19 20 20 21 21 22 23 24 24 24 24 24 24 24 23 22 22
7 9 11 12 14 15 16 15 15 14 13 13 12 11 11 11 11 12 12 13 14 15 16 17 18 18 18 18 19 20 20 20 20 22 23 23 23 24 25 25 26 25 25 25
5 6 8 9 11 12 13 14 14 13 13 12 12 10 9 9 10 10 10 11 12 13 15 16 16 17 17 17 18 20 20 20 19 20 21 22 23 23 24 25 26 26 26 27
6 5 5 7 8 9 10 12 13 12 12 12 11 10 9 8 8 9 9 10 11 12 13 14 14 15 15 16 17 18 19 20 19 19 20 21 22 22 23 23 24 26 27 27
7 6 5 5 6 7 8 9 11 11 11 11 11 11 10 9 9 8 9 9 10 10 11 12 13 13 14 14 15 17 18 19 19 19 19 19 20 21 21 22 22 23 25 26
8 7 7 6 6 6 6 7 8 9 10 10 10 10 10 10 10 9 9 10 9 10 10 11 11 11 12 12 13 14 16 17 18 19 18 18 18 19 20 20 21 22 22 23
9 8 8 8 7 7 7 7 7 7 8 8 9 9 10 10 10 10 10 10 10 10 10 10 10 10 10 10 11 12 13 15 17 18 18 18 18 18 18 18 19 20 20 21
10 10 9 9 9 9 8 8 8 8 8 8 8 9 9 10 10 10 11 11 11 11 11 11 10 10 10 9 10 10 11 13 14 16 17 17 17 17 17 17 17 18 18 19
13 12 12 11 11 11 10 10 10 10 9 9 9 9 9 10 10 10 11 11 11 11 12 12 12 11 9 9 9 9 9 10 11 13 14 15 16 16 16 17 16 16 17 17
17 16 15 14 13 13 13 12 12 12 12 12 12 11 11 11 11 11 11 11 11 11 11 12 12 12 10 9 8 8 8 8 9 10 12 13 14 15 15 15 15 15 15 15
22 21 19 18 17 16 16 15 15 14 14 14 14 14 14 14 13 13 13 12 12 12 12 12 12 12 11 9 9 8 8 8 8 8 9 10 12 13 14 14 14 14 14 14
27 26 24 23 22 21 20 19 18 18 17 17 17 16 16 16 16 16 16 15 14 13 13 13 13 12 12 11 10 9 8 8 8 8 8 8 9 10 11 12 12 12 12 12
33 31 30 29 27 26 25 23 22 22 21 20 20 20 19 19 19 19 18 18 17 16 16 15 14 13 13 12 11 11 10 10 9 9 9 9 9 9 9 9 10 10 10 10
39 37 36 35 34 32 31 29 28 27 26 25 24 23 23 23 22 22 22 21 20 20 19 18 18 16 15 14 13 13 12 12 11 11 11 10 10 9 9 9 8 8 8 8
44 44 43 41 40 39 37 36 35 33 31 30 29 28 27 27 26 26 25 25 24 24 23 22 21 20 19 17 16 15 14 14 13 13 13 13 12 12 11 10 9 8 8 7
49 49 49 48 47 45 44 42 40 39 37 36 35 34 33 32 31 30 30 29 29 28 27 26 25 24 23 21 20 19 18 16 16 15 15 15 15 14 14 13 12 11 10 9
53 54 54 54 53 51 50 48 46 44 43 41 40 39 39 37 36 35 34 34 33 32 31 30 29 28 27 26 24 23 22 20 19 18 17 17 17 17 17 16 15 15 14 13
58 58 58 58 58 57 56 54 52 50 48 47 45 45 44 43 41 40 38 38 37 37 36 35 33 32 31 30 29 28 26 25 24 22 21 19 19 19 19 19 19 19 18 17

GEFSNGP_500_meanwind_036.txt.gz
Wind_Speed
18 18 18 18 18 18 18 18 18 18 19 19 19 20 20 21 21 22 23 22 22 22 23 22 22 21 20 20 19 18 16 16 15 13 12 11 10 8 7 7 7 7 8 8
18 18 18 18 18 18 18 18 18 19 19 20 20 20 21 21 21 22 22 23 23 22 22 22 22 22 21 21 20 19 18 17 16 15 14 13 12 11 9 8 8 8 8 9
17 18 18 17 17 17 18 17 18 19 19 20 20 20 21 21 21 22 22 22 22 21 21 21 21 21 21 21 21 21 20 19 18 17 16 15 13 12 11 11 10 10 10 10
17 17 17 17 17 17 17 17 17 17 18 19 20 20 20 21 20 20 20 21 21 21 21 21 21 21 21 21 22 21 21 21 21 20 19 18 17 15 14 13 12 12 13 12
17 16 17 17 16 16 16 16 16 16 17 17 18 18 19 19 19 19 19 20 20 20 20 20 21 21 21 22 22 22 22 22 22 22 21 21 20 18 17 17 16 15 14 13
15 16 16 16 16 15 15 15 14 14 15 15 16 16 16 16 17 17 18 18 19 19 19 19 20 20 20 21 22 22 22 23 23 23 23 23 23 21 20 20 19 18 17 15
13 14 15 15 15 14 13 13 13 12 13 13 13 14 14 15 15 16 17 18 18 18 18 18 19 20 20 20 21 21 22 23 24 24 24 24 24 23 23 22 22 21 20 18
10 12 13 14 14 14 12 12 11 11 10 10 11 11 12 13 14 15 15 17 18 18 18 18 18 19 20 20 20 20 21 22 23 23 24 24 24 25 25 24 24 24 23 22
8 8 10 12 12 13 12 11 10 9 9 8 8 8 9 10 12 13 14 15 16 17 17 17 18 19 20 20 20 20 20 21 22 23 23 23 24 24 25 25 25 25 25 24
7 6 7 8 10 11 11 11 10 9 8 7 7 7 7 8 9 11 13 13 14 15 16 16 17 18 19 20 20 20 20 21 21 22 23 23 23 24 24 25 26 26 26 26
7 7 6 6 7 8 9 10 9 9 8 8 8 7 7 8 8 9 11 12 13 13 14 15 16 16 17 18 19 20 20 21 21 21 22 23 23 23 24 25 25 26 27 27
9 8 7 6 6 6 7 8 8 8 8 8 8 8 8 8 8 9 10 11 11 11 12 13 14 14 15 17 18 19 20 20 21 21 21 22 22 23 24 24 24 25 26 27
11 11 10 8 7 6 6 6 6 7 7 7 7 8 8 8 8 9 10 10 11 11 11 11 12 13 13 14 16 17 18 20 21 21 22 21 22 22 23 23 24 24 25 25
13 12 12 10 9 8 7 6 6 6 6 6 6 7 8 8 9 9 9 10 11 11 11 10 11 11 12 13 14 15 16 18 19 20 21 21 21 22 22 22 23 23 24 24
16 15 13 12 11 11 10 9 8 7 6 6 6 6 7 7 8 9 9 9 10 11 11 11 10 11 11 11 12 13 14 16 17 18 20 21 21 21 21 22 22 22 22 22
19 17 16 14 13 13 12 12 11 10 8 7 7 6 6 7 7 8 9 9 9 10 10 11 11 11 10 10 10 11 13 14 15 16 18 19 20 20 21 21 21 21 21 21
23 21 19 18 16 15 15 14 13 12 11 11 10 9 8 8 8 8 8 9 9 10 10 10 11 11 10 10 10 10 11 12 13 14 15 17 18 19 20 20 20 20 19 19
26 25 23 22 20 19 18 17 16 15 14 13 13 12 11 11 10 10 9 9 9 10 10 10 10 10 10 11 10 10 10 11 11 12 13 14 16 17 18 18 19 18 18 18
30 28 27 26 24 23 22 21 20 18 17 16 15 15 14 14 13 12 12 11 11 10 10 11 10 10 10 11 11 11 10 10 10 11 11 12 13 14 15 16 16 17 16 16
33 32 31 29 28 27 26 25 24 23 21 20 19 18 17 16 16 15 14 14 13 13 12 12 12 11 11 11 12 12 12 11 11 11 10 10 11 11 12 13 14 14 14 14
37 36 35 33 32 31 30 29 28 27 26 24 23 22 21 20 19 18 18 17 16 15 15 14 14 13 13 13 13 13 13 12 12 12 11 11 10 10 10 10 11 11 11 11
40 40 39 38 37 36 35 34 33 32 31 29 28 27 26 25 24 23 22 20 19 19 19 18 17 16 16 15 15 15 14 14 14 13 13 12 11 11 10 9 9 9 9 9
44 44 43 43 42 42 40 39 38 37 36 34 33 32 31 30 28 27 26 25 23 23 22 22 21 20 20 19 18 18 17 17 16 15 14 14 13 12 12 11 10 9 9 8
50 49 49 48 48 47 46 45 43 42 41 39 38 37 36 35 34 32 31 30 28 28 27 26 25 24 24 23 22 21 21 20 19 18 18 17 16 15 14 14 13 12 11 10
55 54 54 53 53 52 51 50 49 48 46 45 44 43 41 40 39 38 37 35 34 33 32 32 31 30 29 28 27 26 25 24 23 22 21 20 20 19 18 17 16 15 15 15
60 59 58 58 57 57 56 56 55 53 52 51 50 49 47 46 45 44 42 41 40 38 38 37 36 35 34 33 31 30 29 28 27 26 25 24 24 23 22 21 21 20 19 18
65 64 63 63 62 62 61 61 60 59 58 57 56 55 53 52 51 50 48 47 45 44 43 42 41 40 39 38 36 35 34 33 32 31 30 29 28 27 27 26 25 25 24 23

GEFSNGP_500_meanwind_042.txt.gz
Wind_Speed
16 17 17 18 17 16 16 16 16 16 15 15 16 16 17 17 18 18 19 20 20 21 21 21 22 22 21 21 20 20 19 18 16 15 13 11 9 7 5 3 3 5 7 9
16 17 17 17 17 16 15 15 15 15 15 15 15 16 16 17 18 18 19 19 19 20 21 21 22 22 21 21 20 20 20 19 18 17 15 13 12 11 8 7 6 5 6 8
15 16 16 16 16 15 14 14 14 14 14 14 15 15 16 17 17 18 18 18 18 19 20 20 21 21 21 21 21 21 21 20 20 19 18 16 15 13 12 10 9 9 8 9
14 14 15 14 14 14 13 13 13 13 13 13 14 15 15 16 17 17 18 18 18 18 19 20 20 21 21 21 21 21 21 21 21 20 19 18 17 16 15 13 12 11 11 11
13 13 13 13 12 12 11 11 11 11 11 12 13 13 15 16 17 17 17 17 18 18 19 19 20 20 20 20 21 21 21 21 21 20 19 19 18 18 17 16 15 14 14 14
10 11 12 12 11 11 10 10 10 10 9 10 11 12 13 14 15 16 16 16 17 17 18 19 19 19 19 20 20 21 21 21 21 20 20 19 19 19 19 19 17 17 16 16
7 9 10 11 10 10 10 9 10 9 9 8 9 10 11 12 13 14 15 15 16 16 17 18 18 19 19 19 20 20 20 20 20 20 20 20 20 20 20 20 19 19 18 18
5 6 7 9 9 10 9 9 9 9 8 7 8 8 9 11 12 12 13 14 14 15 16 16 17 18 18 18 19 20 20 20 20 21 21 21 21 21 21 21 21 21 20 20
5 5 5 6 7 8 9 9 8 8 8 8 7 8 8 9 11 11 12 12 13 13 14 15 16 16 17 18 19 19 20 21 21 21 21 21 21 21 21 22 22 22 22 21
8 7 6 6 6 7 8 8 8 8 7 8 8 8 8 9 10 11 11 11 11 12 12 13 14 15 16 17 18 19 19 20 21 21 21 21 21 21 21 22 22 22 23 22
10 9 9 8 8 7 7 7 7 7 7 7 7 8 8 8 9 10 10 11 11 11 11 12 13 13 14 15 17 18 19 20 21 21 21 21 21 21 22 22 23 23 23 23
13 12 11 10 10 9 9 8 7 7 7 7 7 7 7 7 7 8 9 10 11 11 11 11 11 12 12 13 15 16 18 19 20 21 21 21 21 22 22 22 22 23 23 23
15 14 13 13 12 12 11 10 9 8 7 7 7 7 7 7 7 8 8 9 10 10 11 11 11 11 11 12 13 14 16 17 18 20 21 21 21 21 22 22 22 22 22 23
18 17 16 16 15 14 14 13 12 11 10 9 9 8 7 7 7 7 8 8 9 9 9 10 10 10 10 11 12 13 14 15 16 18 20 21 21 21 21 21 21 21 22 22
22 21 19 18 18 17 17 16 16 15 13 12 11 10 9 9 8 8 8 8 8 9 9 9 9 9 10 10 10 11 12 13 14 16 17 19 20 20 21 21 21 21 21 21
25 23 22 22 21 20 20 19 19 18 17 16 14 13 12 11 10 9 8 8 8 8 8 8 8 9 9 9 10 10 11 11 12 13 15 16 17 19 19 20 20 20 20 20
29 28 27 26 24 23 23 22 22 21 20 19 18 16 15 14 13 12 11 10 9 9 8 8 8 8 8 9 10 10 10 10 11 11 12 14 15 16 17 17 18 18 18 18
33 32 31 29 28 26 26 25 25 24 23 22 21 19 18 18 17 16 14 13 12 11 10 9 9 8 8 8 9 9 10 10 10 10 10 11 12 13 14 15 15 16 16 16
38 36 35 34 32 30 29 28 28 27 26 25 24 23 21 20 19 18 17 16 15 14 13 12 11 10 9 9 9 9 9 9 10 10 10 10 10 10 11 11 12 12 13 13
43 41 40 38 37 35 33 32 32 30 29 28 27 26 25 23 22 21 20 19 18 17 16 15 14 13 12 11 10 10 9 9 10 10 10 10 9 9 9 9 9 9 9 9
48 46 45 43 41 39 38 37 36 34 33 32 31 30 29 27 25 24 22 21 20 19 18 17 16 16 15 14 13 12 11 11 10 10 10 10 10 9 9 8 8 7 7 7
53 51 50 48 46 45 43 42 40 39 37 36 35 34 32 31 29 28 26 25 23 22 21 20 19 18 17 17 16 15 14 14 13 12 12 11 11 11 10 10 9 8 8 7
57 56 54 52 51 49 48 47 45 44 42 40 39 38 36 35 33 31 30 29 27 26 25 24 23 22 21 20 19 18 17 17 16 15 15 14 13 13 13 12 12 11 11 10
61 60 59 57 56 54 52 51 50 48 47 46 44 43 41 39 37 36 36 34 32 30 29 28 27 26 25 24 23 22 21 20 19 19 18 17 17 16 16 15 15 15 15 14
65 64 63 62 61 59 57 56 54 53 52 50 49 48 46 44 42 41 40 39 37 35 34 34 32 31 30 29 28 27 26 25 24 23 22 21 21 20 19 19 19 19 18 18
68 68 67 67 66 64 62 61 59 58 57 56 54 53 51 50 48 46 45 44 42 41 40 39 37 36 35 34 33 32 31 30 29 28 27 26 26 25 24 24 23 23 22 22
67 68 70 70 70 69 68 66 65 63 62 61 60 58 57 55 54 53 51 50 48 47 45 44 43 41 40 39 38 37 36 35 34 33 33 32 31 30 29 29 28 27 27 27

GEFSNGP_500_meanwind_048.txt.gz
Wind_Speed
12 13 14 14 14 14 14 14 14 14 14 15 16 17 17 17 18 19 19 20 20 21 21 21 22 23 23 23 23 23 22 21 20 19 18 17 16 14 12 10 9 7 6 7
10 11 12 13 13 14 13 13 14 14 14 15 16 16 17 18 18 19 20 20 20 20 21 21 21 22 23 23 23 23 23 22 21 21 20 19 18 16 14 13 11 10 9 9
9 10 11 11 12 13 13 13 13 13 14 14 15 16 16 18 18 19 19 20 20 20 20 21 21 22 23 23 23 23 23 22 22 21 21 20 19 18 16 15 13 12 11 11
8 9 9 11 11 12 12 12 12 13 13 14 14 15 16 17 18 19 19 20 20 20 20 20 21 22 22 23 23 23 22 22 22 22 22 21 21 20 18 17 17 16 15 14
7 8 8 9 10 10 11 12 12 12 13 13 14 14 15 16 17 18 18 19 19 19 19 20 20 21 22 23 23 23 23 22 22 22 22 22 22 21 20 19 19 19 18 16
6 7 7 8 9 9 10 11 12 12 12 13 13 14 15 15 16 17 18 18 18 18 18 19 20 20 21 22 23 24 24 23 23 23 23 23 23 23 22 21 21 20 19 18
7 7 7 8 8 8 9 10 11 11 12 12 13 14 14 15 16 17 17 17 17 17 18 18 18 19 20 21 22 23 24 24 23 23 23 23 24 24 23 23 22 22 21 20
10 9 8 8 8 8 9 9 10 10 11 12 12 13 14 15 15 16 16 16 16 16 17 17 17 18 19 20 21 22 23 24 24 24 24 24 24 25 25 24 24 23 22 21
12 11 11 11 10 10 10 9 10 10 10 10 11 12 13 13 14 15 15 15 15 15 16 16 16 17 18 19 20 21 22 23 24 24 24 24 25 25 25 25 25 24 24 23
15 15 14 13 13 13 12 11 10 10 10 10 10 11 12 12 12 13 14 15 15 15 15 15 15 16 17 18 18 19 20 22 23 23 24 24 25 25 25 25 26 25 24 24
18 18 17 16 16 16 15 14 13 12 11 11 11 11 11 11 12 12 13 14 14 14 14 14 15 15 16 16 17 18 19 20 21 22 24 24 24 25 25 25 26 26 25 25
21 21 20 19 18 18 18 17 16 15 14 13 13 12 11 11 11 12 12 13 13 13 13 14 14 14 15 15 15 16 17 18 20 21 22 23 24 24 25 25 25 26 26 25
24 24 24 23 22 21 20 20 20 19 18 16 15 14 14 13 12 12 12 12 12 12 13 13 13 13 14 14 14 15 15 16 17 19 20 21 22 23 23 24 24 25 25 25
28 27 26 26 25 24 24 23 23 22 21 20 19 18 17 16 14 14 13 12 12 12 12 12 12 12 13 13 13 14 14 15 15 16 18 19 20 21 22 22 22 23 23 24
32 30 29 28 28 28 28 27 26 26 25 23 22 21 20 19 18 16 15 15 14 13 13 12 12 12 12 12 12 13 13 13 14 15 15 16 17 19 19 20 20 21 21 22
35 35 33 32 31 31 31 30 29 29 28 26 25 25 23 22 21 20 19 18 17 15 14 13 12 12 12 12 12 12 12 12 12 13 13 14 15 16 16 17 18 18 18 19
40 39 38 37 36 35 34 33 33 32 31 30 29 28 26 25 24 23 22 21 20 19 18 16 15 14 13 12 12 11 11 11 11 11 11 12 12 13 13 14 15 15 16 16
45 44 43 42 41 40 39 38 37 36 35 34 33 31 29 28 27 26 26 24 23 22 21 20 18 17 16 15 14 13 12 11 11 11 10 10 10 10 11 11 11 12 12 13
50 50 49 48 47 45 44 42 41 40 39 38 37 35 33 32 31 30 29 27 25 25 24 23 21 20 19 18 17 15 14 13 12 11 10 10 10 9 9 9 9 9 9 9
55 55 55 54 53 52 50 48 46 45 43 42 41 39 37 36 35 34 32 30 28 28 27 25 24 23 22 21 20 19 17 16 15 14 12 12 11 10 9 9 8 8 7 7
58 59 59 59 58 57 56 54 52 50 48 47 46 44 42 41 40 38 36 33 32 32 31 29 27 26 25 24 23 21 20 19 18 17 16 14 13 12 11 10 10 9 8 7
59 60 61 62 62 62 61 60 58 57 55 53 51 49 47 45 44 42 40 37 36 36 34 32 31 30 29 27 26 25 24 22 21 20 19 18 17 16 14 13 12 12 11 10
60 61 61 63 64 65 65 64 63 62 60 58 56 54 53 51 49 48 45 42 41 40 38 36 35 34 33 31 30 28 27 26 25 24 22 21 20 19 18 17 16 15 15 14
62 62 62 62 63 65 66 67 67 66 65 64 61 59 58 56 55 53 51 49 47 45 42 40 39 39 37 36 34 32 31 30 29 28 26 25 24 23 22 21 20 19 19 18
63 63 63 63 63 63 65 67 69 70 69 68 66 64 62 61 60 58 57 55 52 50 47 45 44 43 42 40 39 37 36 34 33 32 31 29 28 27 26 25 24 24 23 23
65 66 65 65 64 63 63 64 66 69 71 71 70 69 68 65 64 63 62 60 58 55 53 51 50 49 48 46 44 43 41 39 38 37 35 34 33 32 31 29 28 28 27 27
67 67 67 67 67 66 64 63 63 65 68 71 73 73 72 71 69 67 65 64 63 61 59 58 56 54 53 52 50 48 47 45 43 42 41 39 38 37 36 34 33 33 32 32

GEFSNGP_500_meanwind_054.txt.gz
Wind_Speed
6 7 8 8 9 10 10 10 11 11 12 13 14 14 16 17 18 19 20 20 20 20 21 22 23 23 24 24 24 23 23 22 22 22 21 19 17 16 15 13 12 10 8 7
4 5 5 7 8 8 9 9 10 11 12 13 13 14 15 17 18 19 19 19 20 20 21 21 22 23 24 25 24 24 23 23 23 23 22 20 19 18 16 15 13 12 10 9
3 3 5 5 7 7 8 9 10 10 11 12 13 14 15 16 17 18 18 19 19 20 20 21 21 22 24 24 25 25 24 24 24 23 23 22 21 20 18 17 16 14 13 11
2 2 3 5 6 7 8 8 9 10 11 11 12 14 15 16 17 17 18 18 19 19 19 20 21 22 22 24 24 25 25 25 25 24 24 23 23 21 20 19 18 17 15 14
1 2 3 4 5 6 7 8 9 9 10 11 12 13 14 15 16 17 17 17 18 19 19 20 20 21 22 22 24 25 26 26 26 25 25 24 24 23 22 21 20 19 18 16
2 3 3 4 4 5 6 7 8 9 10 10 11 12 13 14 15 16 16 16 17 18 19 19 20 20 21 21 23 24 25 26 26 26 26 25 25 24 24 23 22 21 20 19
5 5 5 5 5 5 6 7 8 9 9 10 11 11 12 12 13 14 15 16 16 17 17 18 19 19 20 21 22 23 24 25 26 26 26 26 26 25 25 24 24 23 22 20
8 8 8 8 8 8 8 8 9 9 9 10 10 11 11 12 13 13 14 15 15 16 16 17 18 18 19 19 20 21 23 24 25 26 26 26 26 26 26 25 25 25 24 22
12 11 11 11 11 11 10 10 11 11 11 11 11 11 12 12 13 13 14 14 15 15 15 16 16 17 18 18 19 20 21 22 24 25 25 26 26 26 26 26 26 26 25 24
16 15 13 14 14 14 14 13 13 13 13 13 13 13 13 14 14 14 14 14 14 14 14 15 15 16 16 17 18 18 19 20 22 23 24 25 25 26 26 26 26 26 26 25
19 18 16 16 17 17 17 17 16 16 16 16 15 15 15 15 15 15 15 15 15 15 15 15 15 15 15 16 16 17 18 18 19 21 22 23 24 24 24 25 25 25 25 25
20 19 19 19 19 19 20 20 20 20 19 19 19 18 18 18 17 17 17 17 16 16 15 15 15 15 15 15 15 16 16 17 17 18 19 20 21 22 23 23 23 24 24 24
22 22 22 22 21 21 22 23 23 23 23 22 22 21 21 21 20 20 20 19 18 18 17 16 16 16 15 15 15 15 15 15 16 16 17 18 18 19 20 21 21 21 22 23
26 25 25 25 25 25 25 25 25 26 26 26 25 25 24 24 23 23 23 22 21 21 20 19 18 17 17 16 16 15 15 14 14 15 15 16 16 16 17 18 18 18 19 20
31 30 30 30 29 29 29 29 28 28 28 28 29 28 28 27 26 26 26 26 25 24 24 23 21 20 19 18 17 16 16 15 14 14 14 14 14 14 14 15 15 16 16 16
35 36 36 36 35 35 35 34 33 33 33 33 32 32 32 31 30 29 29 29 29 28 27 26 25 25 23 21 20 19 17 16 15 14 13 13 12 12 12 12 12 12 13 13
40 41 42 42 42 42 42 41 40 39 39 38 37 37 36 35 34 33 33 33 32 31 30 30 30 29 27 25 24 22 21 19 17 16 14 13 12 12 11 10 9 9 9 9
44 45 46 47 48 48 48 48 48 47 46 45 44 43 41 40 38 38 38 37 36 34 33 34 34 33 31 29 28 26 25 23 21 19 17 16 14 13 11 10 9 8 7 6
47 47 48 50 51 52 52 53 53 53 53 52 51 50 48 47 45 43 43 42 40 37 37 38 38 36 34 33 32 31 29 27 25 23 21 19 17 16 14 12 11 9 8 7
46 46 47 49 50 52 53 54 54 55 55 55 55 55 54 53 52 50 49 47 44 43 42 42 41 39 38 37 36 34 33 31 30 28 26 24 22 19 18 16 15 13 11 10
43 44 45 46 48 49 51 52 53 55 55 56 56 57 57 56 56 55 54 53 50 49 48 47 45 43 42 41 39 38 36 35 34 32 30 28 26 24 22 20 19 17 16 14
41 41 42 43 45 46 48 50 52 53 54 56 57 58 58 58 59 58 58 57 55 55 54 52 50 48 46 45 43 41 40 39 38 36 35 33 31 29 27 25 23 21 20 18
41 43 44 45 47 48 49 51 52 54 55 56 57 58 58 59 60 60 60 60 60 59 58 56 55 53 51 50 48 45 43 42 41 40 39 37 35 33 31 29 27 26 24 23
45 46 48 50 51 52 53 54 55 56 57 58 59 59 59 60 61 62 62 62 62 62 61 60 59 58 57 55 53 50 48 46 44 43 42 41 39 37 35 33 32 30 28 27
49 51 52 54 55 57 58 58 58 59 59 59 60 60 61 61 61 61 62 63 64 64 64 64 63 62 62 60 58 55 53 51 49 47 46 45 43 41 40 38 36 34 32 31
53 55 56 58 59 60 61 62 62 62 62 61 61 62 62 62 62 62 62 63 64 65 66 66 66 66 65 64 63 61 59 56 54 52 50 49 47 46 44 42 41 39 37 35
55 57 58 60 61 62 63 64 64 65 65 65 64 64 64 63 63 63 63 63 63 64 65 66 67 68 68 68 67 66 64 62 59 57 55 53 52 50 49 47 45 44 42 40

GEFSNGP_500_meanwind_060.txt.gz
Wind_Speed
3 2 2 2 3 4 5 6 7 8 9 10 11 12 14 15 16 16 17 18 18 19 20 20 21 22 23 24 25 25 25 25 25 24 24 23 22 21 20 19 18 17 15 14
2 1 0 1 3 4 5 6 7 8 9 10 11 12 13 15 16 16 17 17 18 19 19 20 21 22 22 23 24 25 26 26 26 25 25 24 23 23 22 21 20 19 17 15
2 2 1 2 3 4 5 6 6 7 8 9 10 11 12 14 15 17 17 18 18 19 19 20 21 21 22 23 24 25 26 26 26 26 25 25 25 24 24 23 22 21 19 17
4 4 3 3 3 4 5 6 6 7 8 9 10 10 11 13 14 16 17 17 18 18 19 20 20 21 22 23 24 25 26 26 26 26 26 26 26 26 25 25 24 23 22 20
6 6 5 5 5 6 6 6 7 8 9 9 10 11 11 13 14 15 16 17 17 18 18 19 20 21 21 22 23 24 25 26 26 27 27 27 27 27 27 26 25 25 23 22
8 8 8 8 8 8 8 8 9 9 10 10 11 12 12 13 14 14 15 16 17 17 18 19 19 20 21 22 22 24 25 25 26 27 27 28 28 28 28 28 27 26 25 23
10 11 11 10 10 10 10 11 11 12 12 12 12 13 13 14 15 15 16 16 17 18 18 18 19 20 21 21 22 23 24 25 26 26 27 28 28 28 29 29 28 28 26 24
13 13 13 13 13 13 14 14 15 15 15 15 15 15 16 16 16 17 17 17 18 18 19 19 19 20 20 21 22 23 23 24 25 26 26 27 28 28 29 29 29 28 27 25
16 16 15 15 16 16 16 17 18 18 18 18 18 18 18 18 18 19 19 19 19 19 19 20 20 20 21 21 22 22 23 23 24 25 25 26 26 27 28 29 29 28 27 25
18 18 18 18 18 18 19 20 20 20 20 20 20 21 21 21 21 21 21 21 21 21 21 21 21 21 21 22 22 22 23 23 24 24 24 25 25 26 26 27 28 27 26 26
21 20 20 20 21 21 22 22 23 23 22 22 23 23 23 24 24 24 24 23 23 23 23 23 23 23 23 22 22 22 23 23 23 23 23 24 24 24 24 25 26 26 25 25
22 22 22 22 23 24 24 24 24 24 24 24 25 25 25 26 26 26 26 26 26 25 25 25 25 25 24 24 23 23 23 23 23 23 23 23 23 23 23 23 23 24 23 22
24 24 24 24 25 25 26 27 27 27 27 27 27 27 27 27 28 28 28 28 28 28 28 28 28 27 27 26 25 25 24 24 24 23 23 22 22 22 22 21 21 21 21 20
27 27 27 27 28 28 29 29 30 30 30 30 30 31 31 31 31 31 31 31 31 31 31 31 30 30 30 28 27 26 26 25 25 24 23 23 22 21 21 20 20 19 19 18
31 31 32 32 32 33 33 34 34 35 35 35 35 35 35 35 35 36 36 36 35 35 35 34 34 34 34 32 30 29 28 27 26 26 25 24 23 22 21 20 19 18 17 16
35 36 37 37 38 38 38 39 39 39 40 40 40 40 40 40 40 40 40 40 40 39 39 38 38 38 37 35 34 32 31 30 29 28 27 26 24 23 22 21 19 18 16 15
40 40 41 42 43 43 43 44 44 44 44 44 44 44 44 44 44 43 43 43 43 43 42 42 41 41 41 40 38 36 34 33 32 30 29 28 27 25 24 23 21 20 18 16
43 44 45 46 47 47 48 48 48 48 48 48 47 47 46 46 46 45 45 45 45 45 45 45 44 44 44 43 42 40 38 37 35 34 32 31 30 28 27 25 24 22 21 18
46 47 48 48 49 49 49 49 49 48 48 47 47 47 46 46 46 45 45 45 45 45 46 47 47 47 47 47 46 45 43 41 39 38 36 35 33 32 30 29 27 26 24 22
48 48 48 48 49 49 49 48 47 46 46 45 46 46 45 45 45 45 45 46 46 45 45 46 47 48 48 49 49 48 47 46 44 42 41 39 38 36 34 33 31 29 28 26
48 48 48 47 46 45 44 44 44 44 44 44 43 43 43 44 45 45 45 46 47 48 48 48 48 48 49 50 51 51 50 50 49 47 46 44 43 41 39 37 35 34 32 30
45 44 43 42 41 41 41 41 41 41 41 42 42 43 44 45 46 47 48 49 49 50 50 51 51 51 51 52 52 53 53 53 53 52 51 49 48 46 44 42 40 38 37 35
39 39 39 39 39 39 40 40 40 41 42 43 44 45 46 48 49 49 51 52 53 54 54 53 53 53 54 54 55 55 56 57 57 56 55 54 53 51 50 48 46 43 41 39
37 37 38 38 38 38 39 39 40 42 43 45 46 47 48 50 51 53 54 55 55 56 56 57 56 56 56 56 56 57 58 59 59 60 60 59 58 57 55 53 51 49 46 44
35 36 36 36 37 38 39 41 42 44 45 47 48 50 51 52 54 55 56 57 58 59 59 59 59 59 59 59 59 59 60 60 61 62 62 63 62 61 60 58 56 54 51 49
36 36 37 38 38 39 41 42 44 45 47 49 50 52 53 55 56 57 59 60 60 61 62 62 62 62 62 62 61 61 61 62 63 64 65 65 65 65 64 63 61 59 56 54
37 38 38 39 40 41 42 44 45 47 48 49 51 53 54 56 57 59 60 61 62 63 63 64 64 64 63 63 62 61 61 61 62 64 66 67 67 67 67 66 64 63 61 59

GEFSNGP_500_meanwind_066.txt.gz
Wind_Speed
8 7 6 5 4 3 2 2 2 3 4 5 6 7 8 10 11 12 13 14 15 16 17 18 19 20 21 22 23 23 24 24 25 25 25 26 25 25 24 24 23 22 21 20
7 6 5 4 3 2 2 1 1 1 3 4 5 6 7 9 10 11 13 14 15 16 17 17 18 20 21 22 23 23 24 25 25 25 25 26 26 26 25 25 25 24 23 21
6 6 5 4 3 2 1 1 1 2 3 4 5 6 7 8 10 11 12 14 15 15 16 17 18 19 20 21 22 23 24 24 25 25 26 26 27 27 27 26 26 26 24 23
7 6 6 5 4 3 3 3 3 4 4 5 6 7 9 10 11 12 13 14 15 16 17 18 18 19 20 21 22 23 23 24 25 25 26 26 27 28 28 28 27 27 25 24
8 7 6 6 6 6 6 6 6 6 7 8 8 9 10 11 12 13 14 15 16 17 17 18 19 20 20 21 22 22 23 24 25 25 25 26 27 28 29 29 28 28 27 25
9 9 9 8 8 8 8 8 8 9 9 10 11 12 12 13 14 15 16 16 17 17 18 19 20 20 21 21 22 22 23 24 24 25 25 26 27 27 28 29 29 28 27 26
11 10 10 10 10 10 10 11 11 11 12 12 13 14 14 15 16 16 17 17 18 19 19 20 20 21 21 22 22 22 23 23 24 25 25 26 26 27 27 28 28 28 27 27
12 12 11 12 12 12 13 13 14 14 14 15 15 16 16 17 17 18 18 19 20 20 20 21 21 21 22 22 22 23 23 24 24 25 25 25 26 26 26 26 27 27 27 27
15 15 14 14 14 15 15 15 16 16 16 17 17 17 18 18 18 19 19 20 20 21 21 21 22 22 22 23 23 23 24 24 24 25 25 25 25 25 26 26 25 26 26 26
16 16 16 17 17 17 17 17 18 18 18 18 18 19 19 19 20 20 21 21 21 22 22 23 23 24 24 24 24 24 25 25 25 25 25 25 25 25 25 25 25 24 24 24
19 19 19 19 19 19 19 19 19 19 20 20 20 20 21 21 22 22 22 23 23 24 24 25 25 25 25 25 25 25 26 26 25 25 25 25 24 24 24 24 24 24 23 23
23 22 22 22 22 22 22 21 21 21 21 22 22 23 23 23 24 24 25 26 26 27 28 28 28 28 27 27 26 26 27 27 26 26 25 25 24 24 24 24 23 23 22 22
25 25 25 24 24 24 24 24 24 23 24 24 25 25 26 26 27 28 29 29 30 30 31 31 31 31 30 29 29 28 28 28 28 27 27 26 25 25 24 24 23 22 22 21
28 28 27 27 26 26 26 26 26 27 27 27 28 28 29 30 31 32 32 33 33 33 34 34 34 34 33 33 32 31 30 30 30 29 29 28 27 26 25 24 24 23 22 21
31 31 30 30 29 29 29 30 30 30 31 31 32 32 33 34 35 35 35 36 36 36 36 37 37 36 36 35 34 33 32 32 31 31 30 30 29 28 27 26 25 24 23 22
35 34 34 33 33 33 34 34 34 34 35 35 35 36 36 37 37 37 38 38 39 38 38 38 37 37 36 35 34 34 33 33 33 32 32 32 31 31 30 29 28 27 26 24
38 37 37 37 38 38 38 38 39 39 39 39 40 40 40 40 40 40 40 39 39 38 37 36 36 35 35 35 34 34 34 34 34 34 33 33 33 33 33 32 31 30 29 28
41 41 41 41 41 42 42 42 42 43 43 43 43 42 42 42 41 41 40 39 38 37 36 35 35 35 35 35 35 35 35 35 35 35 35 35 36 36 36 35 35 34 33 32
44 44 44 44 44 45 45 45 45 45 45 45 44 44 43 43 42 40 39 38 37 36 36 35 35 35 35 35 36 36 36 36 37 37 37 37 38 38 38 38 38 38 37 36
47 47 47 47 47 48 48 48 48 47 47 46 45 45 44 43 41 40 38 37 36 35 35 36 36 37 38 38 39 39 39 39 40 40 40 40 40 40 41 41 42 42 42 41
49 49 49 50 50 49 49 49 49 49 48 47 46 45 44 42 40 38 37 37 36 37 37 38 38 39 40 41 41 42 42 42 42 42 42 42 42 43 43 44 45 45 46 46
51 51 51 51 51 50 50 50 49 48 47 47 45 43 41 39 38 38 37 38 38 39 40 40 41 42 42 43 43 44 44 44 44 45 45 45 46 46 47 47 48 49 49 50
50 51 51 51 51 51 50 49 47 47 46 44 42 40 39 38 38 38 38 39 40 41 42 43 44 44 45 45 46 47 47 48 48 49 49 49 50 50 50 51 52 52 53 54
47 48 48 48 48 47 47 45 45 44 42 41 40 39 38 38 38 39 40 41 42 43 44 45 46 47 47 48 49 50 50 51 52 53 53 53 54 54 54 54 55 56 57 58
43 43 44 44 44 43 43 42 41 40 39 38 38 38 38 39 39 40 42 43 44 45 46 47 48 49 50 51 52 53 54 55 55 56 57 57 58 58 58 58 58 59 59 60
41 41 41 41 41 41 41 40 39 38 38 38 38 39 39 40 41 42 44 45 46 47 48 49 50 51 52 53 54 55 57 58 58 59 60 60 60 61 61 61 60 60 60 61
40 40 40 40 40 40 39 39 39 39 39 39 39 40 41 42 43 44 46 46 47 48 49 50 52 53 54 55 56 58 59 60 60 61 62 62 62 62 62 61 61 60 60 60

GEFSNGP_500_meanwind_072.txt.gz
Wind_Speed
14 12 11 11 11 11 10 9 8 7 5 4 3 3 3 4 6 7 9 10 12 13 14 16 17 18 19 20 21 21 22 23 23 24 24 25 25 25 25 25 25 25 25 25
12 11 11 11 11 10 10 9 8 7 6 5 4 4 5 6 7 8 10 11 13 14 15 16 17 18 19 20 20 21 22 23 23 24 25 25 25 26 26 26 26 26 26 26
12 12 12 11 11 10 10 9 8 8 7 6 6 6 7 8 9 10 11 13 14 15 15 16 17 19 20 20 21 22 22 23 24 24 25 25 25 25 26 26 26 26 26 26
13 13 13 11 10 10 10 10 9 8 8 8 8 9 9 10 11 12 13 14 15 16 17 17 18 19 20 21 22 22 23 23 24 24 25 25 25 25 26 26 26 26 26 27
14 13 11 11 11 11 11 11 10 10 10 10 11 11 11 12 13 13 14 15 16 17 18 18 19 20 20 21 22 22 23 23 24 24 25 25 26 26 25 26 26 26 26 26
14 14 13 13 11 12 13 13 12 12 12 12 13 13 12 13 14 15 15 16 17 18 19 19 20 21 21 22 23 23 24 24 25 25 25 26 26 26 25 25 26 26 26 26
16 16 16 13 12 14 15 14 13 14 14 14 15 15 15 15 16 16 17 18 18 19 20 20 21 22 22 23 24 24 25 25 26 26 26 26 26 27 26 26 25 25 26 25
18 19 18 15 16 16 16 15 16 16 16 16 16 16 17 17 18 18 18 19 19 20 21 22 23 23 24 24 25 26 26 27 27 27 27 27 27 27 27 26 26 26 25 25
21 21 19 18 18 18 18 18 18 18 18 18 18 19 19 19 19 19 20 20 21 22 22 23 24 24 25 26 27 27 28 28 28 28 28 28 27 27 27 27 26 26 25 25
23 22 21 21 21 21 21 20 20 20 20 20 20 20 20 20 21 21 21 22 23 24 24 25 25 26 27 28 29 29 30 30 30 29 29 29 28 28 28 27 26 26 25 25
25 24 24 23 23 23 23 23 23 22 22 22 22 22 22 22 22 22 23 24 25 25 26 27 27 28 29 30 32 32 32 32 32 31 31 30 29 29 29 28 28 27 26 25
27 27 27 26 25 25 25 25 25 24 24 24 24 24 24 24 24 25 25 26 26 27 28 29 30 31 32 33 34 34 34 33 33 32 31 31 30 29 29 28 28 28 27 26
31 31 30 28 28 28 28 27 27 27 26 26 26 26 26 26 26 27 28 28 29 30 31 32 33 34 35 35 35 35 34 34 33 32 31 30 30 29 28 28 28 28 28 28
35 34 33 32 31 31 30 30 30 29 29 29 29 29 29 29 29 30 31 31 32 32 34 35 35 36 37 37 36 36 35 34 33 32 31 31 30 30 29 29 28 28 28 29
38 38 37 36 35 34 34 33 33 32 32 32 32 33 33 33 33 33 34 34 34 35 36 37 38 38 38 38 37 36 35 34 32 32 31 30 30 30 30 30 29 29 29 29
42 42 42 40 38 38 38 37 37 37 36 36 36 36 36 36 36 36 37 37 37 38 39 39 40 40 39 38 38 36 35 33 32 31 30 30 30 30 30 30 30 30 31 31
46 46 45 43 42 42 42 42 42 41 40 40 40 40 40 39 39 40 40 40 40 40 41 41 41 41 40 39 38 36 34 33 32 32 31 31 31 31 32 32 32 32 32 33
49 48 48 48 47 46 46 45 45 44 43 43 43 43 43 43 43 43 43 43 42 42 42 43 42 42 41 39 37 35 34 33 33 33 33 33 33 33 34 34 34 34 33 34
51 51 51 51 50 49 50 50 49 48 48 47 47 47 47 47 46 46 46 45 45 44 44 44 43 42 41 38 36 35 35 34 34 34 34 34 34 35 35 35 35 35 36 36
52 53 54 54 53 53 52 53 52 52 51 51 51 51 50 50 49 49 48 47 46 46 46 45 43 42 39 37 36 35 35 35 35 35 35 36 36 36 37 37 38 38 38 39
52 53 54 54 55 55 55 55 55 55 54 54 54 53 53 52 51 50 49 48 47 47 46 45 43 40 38 37 36 36 36 37 37 37 38 38 38 39 39 40 40 41 41 42
52 53 55 55 56 56 56 57 57 57 57 56 56 55 54 53 53 52 50 49 48 47 46 44 42 40 38 38 37 38 38 39 39 39 40 40 41 42 42 43 44 45 46 46
51 52 54 55 56 57 57 57 57 58 58 58 57 56 56 55 54 53 51 50 49 47 45 43 41 40 39 38 39 39 40 41 41 42 42 43 44 45 46 47 48 49 50 51
49 50 51 53 55 56 56 56 57 57 57 57 57 57 56 55 54 53 51 49 47 45 43 42 40 40 39 40 40 41 42 43 44 44 45 47 48 49 50 51 52 53 54 55
46 47 48 49 51 52 53 53 54 54 55 55 55 55 54 53 52 50 48 46 45 43 42 41 40 40 40 41 42 43 44 45 46 47 49 50 51 52 54 55 56 57 58 59
45 45 45 46 47 48 48 49 49 50 51 51 51 51 50 49 48 46 45 43 42 41 41 40 40 41 42 43 44 45 46 48 49 50 52 53 54 55 57 58 59 60 61 61
42 43 43 43 44 45 45 45 45 46 46 46 46 46 45 45 44 43 42 41 41 41 41 41 41 42 43 44 45 47 49 50 51 52 53 55 56 58 59 60 61 61 62 63